Radiation Dose at Monitoring Post of Fukushima Daini Nuclear Power Station
Date,Time,MP-1(microSv/h),MP-2(microSv/h),MP-3(microSv/h),MP-4(microSv/h),MP-5(microSv/h),MP-6(microSv/h),MP-7(microSv/h),Wind Direction,Wind Velocity(m/s),Rain
2020/01/31,00:00,0.178,0.160,0.268,0.251,0.249,0.137,0.084,northwest,1.9,No
2020/01/31,00:10,0.179,0.160,0.269,0.251,0.251,0.137,0.084,north-northwest,3.2,No
2020/01/31,00:20,0.178,0.160,0.268,0.250,0.248,0.135,0.084,north-northwest,4.4,No
2020/01/31,00:30,0.178,0.159,0.268,0.249,0.249,0.136,0.085,north,5.2,No
2020/01/31,00:40,0.178,0.161,0.269,0.251,0.251,0.138,0.085,north,5.2,No
2020/01/31,00:50,0.179,0.161,0.268,0.250,0.250,0.137,0.084,north,5.0,No
2020/01/31,01:00,0.179,0.159,0.269,0.249,0.251,0.137,0.084,north,4.2,No
2020/01/31,01:10,0.179,0.160,0.269,0.250,0.250,0.137,0.085,north,3.8,No
2020/01/31,01:20,0.179,0.159,0.268,0.252,0.250,0.136,0.085,north,3.7,No
2020/01/31,01:30,0.179,0.160,0.269,0.250,0.249,0.135,0.084,north,4.0,No
2020/01/31,01:40,0.178,0.160,0.270,0.250,0.250,0.137,0.084,north-northwest,3.6,No
2020/01/31,01:50,0.178,0.160,0.269,0.251,0.251,0.137,0.084,north-northwest,3.9,No
2020/01/31,02:00,0.178,0.160,0.268,0.251,0.249,0.137,0.085,northwest,5.6,No
2020/01/31,02:10,0.178,0.160,0.269,0.251,0.249,0.137,0.085,northwest,6.6,No
2020/01/31,02:20,0.179,0.161,0.271,0.251,0.250,0.137,0.084,northwest,5.5,No
2020/01/31,02:30,0.178,0.160,0.269,0.250,0.251,0.137,0.084,north-northwest,5.3,No
2020/01/31,02:40,0.178,0.160,0.269,0.250,0.249,0.136,0.085,north-northwest,3.7,No
2020/01/31,02:50,0.180,0.159,0.270,0.251,0.250,0.137,0.085,north-northwest,3.6,No
2020/01/31,03:00,0.178,0.160,0.269,0.250,0.250,0.137,0.084,north-northwest,3.9,No
2020/01/31,03:10,0.178,0.160,0.269,0.251,0.251,0.137,0.084,north-northwest,5.4,No
2020/01/31,03:20,0.177,0.159,0.268,0.250,0.251,0.136,0.085,north,3.2,No
2020/01/31,03:30,0.179,0.161,0.271,0.251,0.248,0.137,0.085,northwest,5.0,No
2020/01/31,03:40,0.178,0.161,0.270,0.252,0.250,0.137,0.085,north,4.4,No
2020/01/31,03:50,0.179,0.159,0.269,0.251,0.249,0.136,0.085,north-northwest,5.9,No
2020/01/31,04:00,0.179,0.159,0.270,0.251,0.251,0.137,0.085,northwest,6.3,No
2020/01/31,04:10,0.179,0.160,0.270,0.250,0.251,0.136,0.085,northwest,5.3,No
2020/01/31,04:20,0.179,0.160,0.269,0.250,0.250,0.137,0.085,northwest,6.5,No
2020/01/31,04:30,0.178,0.161,0.270,0.251,0.251,0.137,0.085,north-northwest,3.2,No
2020/01/31,04:40,0.179,0.159,0.271,0.251,0.250,0.137,0.084,northwest,6.3,No
2020/01/31,04:50,0.178,0.161,0.269,0.250,0.251,0.137,0.084,northwest,7.1,No
2020/01/31,05:00,0.178,0.160,0.271,0.251,0.250,0.137,0.085,northwest,6.3,No
2020/01/31,05:10,0.179,0.159,0.270,0.250,0.251,0.137,0.085,northwest,7.8,No
2020/01/31,05:20,0.179,0.159,0.270,0.251,0.250,0.137,0.084,north-northwest,8.7,No
2020/01/31,05:30,0.179,0.160,0.270,0.251,0.251,0.137,0.084,northwest,8.7,No
2020/01/31,05:40,0.179,0.160,0.270,0.251,0.250,0.137,0.084,north-northwest,6.5,No
2020/01/31,05:50,0.179,0.161,0.270,0.251,0.250,0.137,0.085,north,4.2,No
2020/01/31,06:00,0.180,0.160,0.271,0.251,0.250,0.136,0.085,northwest,5.6,No
2020/01/31,06:10,0.178,0.162,0.270,0.250,0.251,0.137,0.085,north,2.5,No
2020/01/31,06:20,0.178,0.161,0.270,0.251,0.250,0.137,0.084,north-northwest,3.2,No
2020/01/31,06:30,0.179,0.161,0.269,0.251,0.250,0.137,0.084,north,2.3,No
2020/01/31,06:40,0.178,0.160,0.269,0.252,0.252,0.137,0.084,north,4.0,No
2020/01/31,06:50,0.179,0.159,0.270,0.250,0.251,0.137,0.085,north,4.8,No
2020/01/31,07:00,0.179,0.161,0.270,0.250,0.250,0.137,0.085,north-northwest,5.8,No
2020/01/31,07:10,0.178,0.160,0.269,0.251,0.249,0.138,0.085,north-northwest,5.1,No
2020/01/31,07:20,0.179,0.160,0.271,0.252,0.249,0.137,0.085,north-northwest,4.8,No
2020/01/31,07:30,0.178,0.160,0.270,0.250,0.249,0.136,0.085,north,6.4,No
2020/01/31,07:40,0.179,0.161,0.271,0.250,0.251,0.137,0.084,north-northwest,4.6,No
2020/01/31,07:50,0.179,0.160,0.270,0.252,0.250,0.136,0.084,northwest,3.4,No
2020/01/31,08:00,0.178,0.161,0.270,0.250,0.250,0.137,0.084,northwest,7.3,No
2020/01/31,08:10,0.180,0.162,0.270,0.251,0.251,0.137,0.084,north-northwest,9.5,No
2020/01/31,08:20,0.178,0.161,0.269,0.250,0.251,0.137,0.084,northwest,10.4,No
2020/01/31,08:30,0.179,0.161,0.271,0.251,0.251,0.138,0.085,west-northwest,6.4,No
2020/01/31,08:40,0.179,0.161,0.270,0.251,0.250,0.137,0.084,northwest,8.2,No
2020/01/31,08:50,0.179,0.161,0.271,0.251,0.251,0.138,0.084,northwest,5.4,No
2020/01/31,09:00,0.179,0.160,0.271,0.252,0.250,0.137,0.085,northwest,7.4,No
2020/01/31,09:10,0.178,0.159,0.271,0.250,0.251,0.137,0.083,west-northwest,7.4,No
2020/01/31,09:20,0.180,0.160,0.271,0.251,0.249,0.137,0.085,northwest,7.4,No
2020/01/31,09:30,0.180,0.159,0.271,0.250,0.249,0.137,0.085,north-northwest,5.7,No
2020/01/31,09:40,0.180,0.161,0.271,0.251,0.251,0.137,0.084,north-northwest,5.8,No
2020/01/31,09:50,0.179,0.160,0.270,0.250,0.251,0.137,0.084,north-northwest,4.9,No
2020/01/31,10:00,0.180,0.161,0.272,0.250,0.250,0.137,0.084,north-northwest,6.7,No
2020/01/31,10:10,0.177,0.160,0.271,0.250,0.250,0.138,0.084,north-northwest,9.5,No
2020/01/31,10:20,0.178,0.160,0.271,0.251,0.249,0.137,0.084,northwest,9.2,No
2020/01/31,10:30,0.178,0.161,0.272,0.251,0.250,0.138,0.084,northwest,7.9,No
2020/01/31,10:40,0.178,0.161,0.271,0.250,0.251,0.137,0.084,northwest,8.5,No
2020/01/31,10:50,0.178,0.160,0.270,0.252,0.250,0.136,0.085,west-northwest,7.4,No
2020/01/31,11:00,0.179,0.160,0.271,0.250,0.251,0.138,0.084,west-northwest,9.6,No
2020/01/31,11:10,0.180,0.160,0.271,0.252,0.250,0.138,0.085,west-northwest,11.2,No
2020/01/31,11:20,0.178,0.161,0.270,0.250,0.251,0.138,0.085,west-northwest,12.9,No
2020/01/31,11:30,0.180,0.161,0.271,0.251,0.251,0.137,0.085,northwest,9.5,No
2020/01/31,11:40,0.179,0.161,0.272,0.249,0.250,0.138,0.084,west-northwest,9.0,No
2020/01/31,11:50,0.178,0.161,0.271,0.253,0.251,0.138,0.084,northwest,7.9,No
2020/01/31,12:00,0.179,0.160,0.269,0.251,0.250,0.138,0.084,west-northwest,11.5,No
2020/01/31,12:10,0.179,0.160,0.271,0.251,0.250,0.138,0.084,west,8.1,No
2020/01/31,12:20,0.179,0.160,0.271,0.250,0.250,0.138,0.085,west-northwest,11.1,No
2020/01/31,12:30,0.179,0.161,0.270,0.251,0.251,0.138,0.084,west-northwest,9.8,No
2020/01/31,12:40,0.179,0.162,0.272,0.252,0.250,0.138,0.084,west-northwest,7.8,No
2020/01/31,12:50,0.179,0.161,0.270,0.252,0.252,0.139,0.084,west-northwest,11.2,No
2020/01/31,13:00,0.178,0.161,0.271,0.250,0.250,0.137,0.085,west,7.5,No
2020/01/31,13:10,0.179,0.161,0.271,0.252,0.252,0.137,0.085,west-northwest,6.8,No
2020/01/31,13:20,0.179,0.161,0.270,0.249,0.250,0.138,0.085,west-northwest,8.5,No
2020/01/31,13:30,0.179,0.160,0.272,0.252,0.252,0.138,0.085,west,12.3,No
2020/01/31,13:40,0.180,0.160,0.272,0.250,0.250,0.137,0.084,west-northwest,8.1,No
2020/01/31,13:50,0.179,0.160,0.272,0.252,0.252,0.138,0.085,west-northwest,9.8,No
2020/01/31,14:00,0.180,0.161,0.271,0.251,0.250,0.137,0.085,west,10.0,No
2020/01/31,14:10,0.179,0.160,0.271,0.251,0.251,0.137,0.084,west-northwest,11.4,No
2020/01/31,14:20,0.179,0.161,0.272,0.251,0.250,0.139,0.084,west,9.5,No
2020/01/31,14:30,0.180,0.162,0.272,0.253,0.252,0.137,0.085,west-northwest,8.4,No
2020/01/31,14:40,0.180,0.161,0.272,0.252,0.252,0.137,0.085,west-northwest,6.9,No
2020/01/31,14:50,0.178,0.162,0.272,0.253,0.251,0.138,0.084,west-northwest,5.9,No
2020/01/31,15:00,0.180,0.161,0.274,0.254,0.254,0.137,0.085,west-northwest,7.3,No
2020/01/31,15:10,0.179,0.161,0.272,0.252,0.253,0.137,0.085,west-northwest,6.3,No
2020/01/31,15:20,0.179,0.162,0.273,0.252,0.252,0.138,0.085,west,6.9,No
2020/01/31,15:30,0.179,0.162,0.273,0.253,0.254,0.138,0.085,west-northwest,8.2,No
2020/01/31,15:40,0.181,0.162,0.272,0.252,0.252,0.138,0.085,west,8.7,No
2020/01/31,15:50,0.180,0.162,0.272,0.253,0.251,0.138,0.085,west-northwest,11.2,No
2020/01/31,16:00,0.180,0.161,0.271,0.253,0.253,0.138,0.086,west-northwest,6.9,No
2020/01/31,16:10,0.179,0.162,0.273,0.253,0.251,0.138,0.086,west,6.0,No
2020/01/31,16:20,0.180,0.161,0.273,0.253,0.251,0.138,0.085,west-northwest,5.0,No
2020/01/31,16:30,0.180,0.163,0.273,0.252,0.251,0.139,0.085,west-northwest,5.5,No
2020/01/31,16:40,0.180,0.161,0.271,0.253,0.252,0.139,0.085,west-northwest,6.8,No
2020/01/31,16:50,0.179,0.162,0.273,0.252,0.251,0.138,0.085,west-northwest,5.3,No
2020/01/31,17:00,0.180,0.160,0.273,0.253,0.251,0.138,0.085,west-northwest,6.9,No
2020/01/31,17:10,0.179,0.161,0.273,0.252,0.251,0.138,0.086,northwest,6.5,No
2020/01/31,17:20,0.180,0.161,0.273,0.254,0.253,0.138,0.086,west-northwest,9.2,No
2020/01/31,17:30,0.180,0.162,0.273,0.254,0.252,0.138,0.085,northwest,5.0,No
2020/01/31,17:40,0.181,0.162,0.274,0.254,0.251,0.138,0.085,west,3.5,No
2020/01/31,17:50,0.180,0.162,0.273,0.253,0.251,0.138,0.085,west,3.4,No
2020/01/31,18:00,0.181,0.162,0.274,0.253,0.252,0.138,0.085,west-northwest,5.6,No
2020/01/31,18:10,0.180,0.162,0.273,0.253,0.251,0.137,0.085,west-northwest,6.8,No
2020/01/31,18:20,0.180,0.161,0.273,0.254,0.250,0.137,0.085,west-northwest,6.2,No
2020/01/31,18:30,0.180,0.162,0.273,0.253,0.251,0.138,0.085,northwest,4.3,No
2020/01/31,18:40,0.179,0.162,0.273,0.253,0.251,0.138,0.084,northwest,4.6,No
2020/01/31,18:50,0.180,0.162,0.272,0.254,0.251,0.138,0.086,northwest,4.9,No
2020/01/31,19:00,0.180,0.161,0.272,0.252,0.251,0.138,0.085,west-northwest,4.6,No
2020/01/31,19:10,0.181,0.162,0.272,0.252,0.252,0.138,0.085,west-northwest,7.1,No
2020/01/31,19:20,0.180,0.161,0.272,0.254,0.253,0.139,0.085,west-northwest,7.9,No
2020/01/31,19:30,0.181,0.161,0.272,0.253,0.252,0.138,0.085,west-northwest,7.9,No
2020/01/31,19:40,0.180,0.162,0.272,0.254,0.253,0.138,0.084,west-northwest,9.8,No
2020/01/31,19:50,0.179,0.161,0.274,0.254,0.251,0.138,0.086,west-northwest,10.1,No
2020/01/31,20:00,0.180,0.161,0.273,0.254,0.252,0.138,0.085,west-northwest,10.9,No
2020/01/31,20:10,0.181,0.162,0.274,0.253,0.252,0.138,0.085,west,10.0,No
2020/01/31,20:20,0.180,0.162,0.273,0.253,0.252,0.139,0.085,west,9.3,No
2020/01/31,20:30,0.180,0.163,0.275,0.253,0.252,0.138,0.085,west,7.9,No
2020/01/31,20:40,0.181,0.162,0.273,0.254,0.252,0.137,0.086,west-northwest,8.1,No
2020/01/31,20:50,0.180,0.162,0.272,0.253,0.252,0.138,0.085,west-northwest,5.6,No
2020/01/31,21:00,0.180,0.161,0.272,0.253,0.252,0.138,0.085,west-northwest,5.2,No
2020/01/31,21:10,0.180,0.162,0.273,0.253,0.252,0.138,0.085,northwest,4.2,No
2020/01/31,21:20,0.180,0.161,0.273,0.254,0.251,0.138,0.085,northwest,6.9,No
2020/01/31,21:30,0.180,0.161,0.271,0.253,0.251,0.138,0.085,northwest,5.1,No
2020/01/31,21:40,0.180,0.162,0.272,0.252,0.251,0.138,0.085,northwest,4.8,No
2020/01/31,21:50,0.180,0.162,0.272,0.252,0.250,0.138,0.084,west-northwest,4.3,No
2020/01/31,22:00,0.180,0.162,0.273,0.254,0.251,0.138,0.085,west-northwest,4.4,No
2020/01/31,22:10,0.180,0.161,0.273,0.254,0.250,0.138,0.085,northwest,4.5,No
2020/01/31,22:20,0.181,0.161,0.272,0.255,0.251,0.139,0.085,west-northwest,6.4,No
2020/01/31,22:30,0.179,0.162,0.272,0.253,0.253,0.139,0.085,west-northwest,7.3,No
2020/01/31,22:40,0.179,0.162,0.273,0.253,0.252,0.138,0.085,west-northwest,7.1,No
2020/01/31,22:50,0.180,0.162,0.273,0.254,0.250,0.137,0.085,west-northwest,7.3,No
2020/01/31,23:00,0.179,0.162,0.272,0.253,0.251,0.138,0.085,west-northwest,5.4,No
2020/01/31,23:10,0.180,0.161,0.272,0.254,0.251,0.138,0.085,northwest,3.1,No
2020/01/31,23:20,0.180,0.162,0.273,0.253,0.251,0.138,0.085,northwest,4.0,No
2020/01/31,23:30,0.179,0.162,0.274,0.253,0.252,0.138,0.086,northwest,4.4,No
2020/01/31,23:40,0.180,0.161,0.272,0.252,0.251,0.138,0.086,northwest,3.5,No
2020/01/31,23:50,0.180,0.162,0.273,0.253,0.252,0.137,0.085,northwest,2.8,No
